Location: ????????
(55.6189°N, 38.3031°E)
Time: 07:26:36
(UTC+00:00)

Cosmos 2173 Rocket - Pass Details

Date: 15 November 2019
Orbit: 944 x 1001 km, 83.0° (Epoch: 14 December)

Event Time Altitude Azimuth Distance (km) Brightness Sun altitude
Rises 02:42:20 0° 183° (S) 3,683 7.1 -19.1°
Reaches altitude 10° 02:44:52 10° 182° (S) 2,731 6.4 -18.8°
Maximum altitude 02:51:06 76° 98° (E) 1,004 4.2 -17.9°
Drops below altitude 10° 02:57:18 10° 14° (NNE) 2,709 6.4 -17.0°
Sets 02:59:47 0° 13° (NNE) 3,652 7.1 -16.7°
